ON4CDJ-13 Weather Reports


time (UTC)temp
C
wind
direction
speed
KPH
gust
KPH
rain 1hr
cm
rain 24hr
cm
rain mn
cm
humidity
%
barometer
mb
20260507192536 13 0.0 0.0 0.00 0.00 0.00 68 1017.4
20260507191516 13 0.0 1.6 0.00 0.00 0.00 66 1017.5
20260507190607 13 0.0 1.6 0.00 0.00 0.00 66 1017.4
20260507185546 13 0.0 1.6 0.00 0.00 0.00 64 1017.3
20260507184522 13 181 0.0 1.6 0.00 0.00 0.00 63 1017.3
20260507183610 13 0.0 0.0 0.00 0.00 0.00 63 1017.3
20260507182611 13 0.0 0.0 0.00 0.00 0.00 61 1017.3
20260507181530 14 0.0 0.0 0.00 0.00 0.00 61 1017.3
20260507180610 14 0.0 0.0 0.00 0.00 0.00 61 1017.3
20260507175551 14 0.0 0.0 0.00 0.00 0.00 58 1017.3
20260507174523 15 151 0.0 3.2 0.00 0.00 0.00 56 1017.3
20260507173604 15 106 0.0 3.2 0.00 0.00 0.00 55 1017.2
20260507172606 15 0.0 1.6 0.00 0.00 0.00 56 1017.2
20260507171535 15 87 0.0 3.2 0.00 0.00 0.00 52 1017.2
20260507170635 15 117 0.0 4.8 0.00 0.00 0.00 53 1017.3
20260507165607 15 300 1.6 3.2 0.00 0.00 0.00 54 1017.3
20260507164530 15 0.0 3.2 0.00 0.00 0.00 54 1017.3
20260507163558 15 216 0.0 1.6 0.00 0.00 0.00 52 1017.3
20260507162604 15 250 0.0 1.6 0.00 0.00 0.00 53 1017.3
20260507161608 15 0.0 3.2 0.00 0.00 0.00 53 1017.3
20260507160522 15 77 1.6 4.8 0.00 0.00 0.00 53 1017.2
20260507155648 15 45 1.6 4.8 0.00 0.00 0.00 55 1017.2
20260507154544 15 61 3.2 6.4 0.00 0.00 0.00 53 1017.3
20260507153528 15 80 3.2 6.4 0.00 0.00 0.00 54 1017.2
20260507152608 15 115 3.2 9.7 0.00 0.00 0.00 55 1017.2
20260507151551 15 58 3.2 4.8 0.00 0.00 0.00 53 1017.2
20260507150600 15 94 1.6 4.8 0.00 0.00 0.00 53 1017.2
20260507145612 15 103 1.6 3.2 0.00 0.00 0.00 51 1017.2
20260507144556 15 122 1.6 6.4 0.00 0.00 0.00 53 1017.1
20260507143543 15 43 1.6 3.2 0.00 0.00 0.00 53 1017.1
20260507142544 15 74 3.2 4.8 0.00 0.00 0.00 54 1017.2
20260507141607 15 55 3.2 6.4 0.00 0.00 0.00 55 1017.3
20260507140542 15 127 1.6 4.8 0.00 0.00 0.00 55 1017.3
20260507135527 15 44 1.6 4.8 0.00 0.00 0.00 55 1017.3
20260507134627 15 177 1.6 3.2 0.00 0.00 0.00 58 1017.4
20260507133550 15 314 3.2 6.4 0.00 0.00 0.00 57 1017.4
20260507132538 15 293 0.0 3.2 0.00 0.00 0.00 57 1017.4
20260507131620 15 254 0.0 3.2 0.00 0.00 0.00 55 1017.4
20260507130559 15 56 3.2 6.4 0.00 0.00 0.00 55 1017.4
20260507125602 15 105 1.6 4.8 0.00 0.00 0.00 55 1017.3
20260507124526 15 206 1.6 4.8 0.00 0.00 0.00 55 1017.3
20260507123609 15 72 3.2 4.8 0.00 0.00 0.00 55 1017.2
20260507122548 15 270 1.6 9.7 0.00 0.00 0.00 57 1017.2
20260507121530 15 31 1.6 4.8 0.00 0.00 0.00 57 1017.2
20260507120618 15 316 1.6 4.8 0.00 0.00 0.00 57 1017.2
20260507115546 16 331 3.2 6.4 0.00 0.00 0.00 55 1017.2
20260507114531 16 305 6.4 12.9 0.00 0.00 0.00 54 1017.2
20260507113620 17 144 1.6 6.4 0.00 0.00 0.00 45 1017.1
20260507112601 16 128 4.8 11.3 0.00 0.00 0.00 49 1017.0
20260507111530 16 170 1.6 4.8 0.00 0.00 0.00 49 1017.2
20260507110717 16 145 4.8 9.7 0.00 0.00 0.00 47 1017.3
20260507105609 15 67 3.2 4.8 0.00 0.00 0.00 51 1017.3
20260507104538 15 81 3.2 6.4 0.00 0.00 0.00 52 1017.4
20260507103755 16 333 4.8 9.7 0.00 0.00 0.00 53 1017.5
20260507102600 16 351 4.8 11.3 0.00 0.00 0.00 51 1017.3
20260507101544 16 122 4.8 6.4 0.00 0.00 0.00 50 1017.5
20260507100530 16 183 1.6 9.7 0.00 0.00 0.00 51 1017.4
20260507095603 16 113 3.2 6.4 0.00 0.00 0.00 49 1017.3
20260507094545 15 88 3.2 9.7 0.00 0.00 0.00 53 1017.3
20260507093529 15 88 1.6 6.4 0.00 0.00 0.00 56 1017.2
20260507092614 15 22 3.2 6.4 0.00 0.00 0.00 55 1017.3
20260507091554 15 65 3.2 9.7 0.00 0.00 0.00 57 1017.2
20260507090539 14 135 1.6 6.4 0.00 0.00 0.00 62 1017.1
20260507085616 13 302 3.2 6.4 0.00 0.00 0.00 65 1017.0
20260507084558 14 316 1.6 4.8 0.00 0.00 0.00 66 1017.1
20260507083538 13 293 1.6 4.8 0.00 0.00 0.00 68 1017.1
20260507082523 14 193 0.0 1.6 0.00 0.00 0.00 66 1017.1
20260507081601 13 177 1.6 4.8 0.00 0.00 0.00 67 1017.0
20260507080544 13 185 1.6 4.8 0.00 0.00 0.00 70 1017.1
20260507075526 12 99 1.6 4.8 0.00 0.00 0.00 73 1017.0
20260507074623 12 303 1.6 3.2 0.00 0.00 0.00 76 1017.0
20260507073545 11 96 1.6 6.4 0.00 0.00 0.00 79 1017.0
20260507072529 10 307 1.6 4.8 0.00 0.00 0.00 83 1017.0
20260507071517 10 310 1.6 3.2 0.00 0.00 0.00 83 1016.9
20260507070605 10 49 0.0 3.2 0.00 0.00 0.00 84 1016.8
20260507065548 10 46 0.0 4.8 0.00 0.00 0.00 85 1016.8
20260507064528 10 82 1.6 4.8 0.00 0.00 0.00 86 1016.8
20260507063632 10 349 1.6 6.4 0.00 0.00 0.00 88 1016.8
20260507062635 10 139 1.6 6.4 0.00 0.00 0.00 89 1016.7
20260507061537 10 27 0.0 3.2 0.00 0.00 0.00 91 1016.6
20260507060616 9 308 0.0 3.2 0.00 0.00 0.00 92 1016.6
20260507055557 8 0.0 0.0 0.00 0.00 0.00 93 1016.5
20260507054603 8 0.0 1.6 0.00 0.00 0.00 93 1016.4
20260507053530 8 272 0.0 1.6 0.00 0.00 0.00 94 1016.3
20260507052517 8 0.0 0.0 0.00 0.00 0.00 94 1016.2
20260507051606 7 0.0 0.0 0.00 0.00 0.00 94 1016.0
20260507050557 7 0.0 0.0 0.00 0.00 0.00 94 1016.0
20260507045542 7 0.0 0.0 0.00 0.00 0.00 94 1016.0
20260507044525 7 0.0 0.0 0.00 0.00 0.00 94 1015.8
20260507043606 7 0.0 0.0 0.00 0.00 0.00 94 1015.7
20260507042547 7 0.0 0.0 0.00 0.00 0.00 94 1015.8
20260507041531 7 0.0 0.0 0.00 0.00 0.00 94 1015.7
20260507040611 7 0.0 0.0 0.00 0.00 0.00 93 1015.5
20260507035554 7 0.0 0.0 0.00 0.00 0.00 94 1015.3
20260507034539 6 0.0 0.0 0.00 0.00 0.00 93 1015.3
20260507033523 7 0.0 0.0 0.00 0.00 0.00 93 1015.4
20260507032625 6 0.0 0.0 0.00 0.00 0.00 93 1015.3
20260507031545 6 0.0 0.0 0.00 0.00 0.00 93 1015.1
20260507030529 6 0.0 0.0 0.00 0.00 0.00 93 1015.1
20260507025630 6 0.0 0.0 0.00 0.00 0.00 93 1015.1
20260507024620 6 0.0 0.0 0.00 0.00 0.00 93 1015.1
20260507023539 6 0.0 0.0 0.00 0.00 0.00 93 1015.1
20260507022518 6 0.0 0.0 0.00 0.00 0.00 93 1015.0
20260507021620 6 0.0 0.0 0.00 0.00 0.00 92 1015.0
20260507020545 6 0.0 0.0 0.00 0.00 0.00 92 1014.8
20260507015528 6 0.0 0.0 0.00 0.00 0.00 92 1014.8
20260507014617 6 0.0 0.0 0.00 0.00 0.00 91 1014.6
20260507013554 6 184 0.0 1.6 0.00 0.00 0.00 91 1014.6
20260507012539 6 0.0 0.0 0.00 0.00 0.00 91 1014.6
20260507011541 6 0.0 0.0 0.00 0.00 0.00 90 1014.6
20260507010608 7 0.0 0.0 0.00 0.00 0.00 90 1014.7
20260507005543 7 0.0 0.0 0.00 0.00 0.00 90 1014.6
20260507004526 7 0.0 0.0 0.00 0.00 0.00 90 1014.6
20260507003610 7 0.0 0.0 0.00 0.00 0.00 91 1014.5
20260507002549 7 0.0 0.0 0.00 0.00 0.00 90 1014.6
20260507001529 7 0.0 0.0 0.00 0.00 0.00 90 1014.6
20260507000617 7 0.0 0.0 0.00 0.00 0.00 89 1014.5
20260506235623 8 0.0 0.0 0.00 0.00 0.00 89 1014.5
20260506234545 8 0.0 0.0 0.00 0.00 0.00 88 1014.3
20260506233529 8 0.0 0.0 0.00 0.00 0.00 87 1014.4
20260506232603 8 0.0 0.0 0.00 0.00 0.00 87 1014.3
20260506231538 8 0.0 0.0 0.00 0.00 0.00 87 1014.3
20260506230523 8 0.0 0.0 0.00 0.00 0.00 88 1014.2
20260506225607 8 0.0 0.0 0.00 0.00 0.00 88 1014.1
20260506224604 8 0.0 0.0 0.00 0.00 0.00 87 1014.1
20260506223529 8 0.0 0.0 0.00 0.00 0.00 87 1014.2
20260506222607 8 0.0 0.0 0.00 0.00 0.00 87 1014.1
20260506221553 8 0.0 0.0 0.00 0.00 0.00 86 1014.1
20260506220534 7 0.0 0.0 0.00 0.00 0.00 85 1014.0
20260506215614 7 0.0 0.0 0.00 0.00 0.00 85 1014.0
20260506214558 7 0.0 0.0 0.00 0.00 0.00 85 1014.0
20260506213537 7 0.0 0.0 0.00 0.00 0.00 84 1013.9
20260506212617 7 0.0 0.0 0.00 0.00 0.00 84 1013.9
20260506211552 7 0.0 0.0 0.00 0.00 0.00 82 1013.7
20260506210556 8 0.0 0.0 0.00 0.00 0.00 81 1013.6
20260506205520 8 0.0 0.0 0.00 0.00 0.00 81 1013.6
20260506204609 8 0.0 0.0 0.00 0.00 0.00 78 1013.5
20260506203544 8 0.0 0.0 0.00 0.00 0.00 75 1013.4
20260506202529 9 0.0 0.0 0.00 0.00 0.00 74 1013.3
20260506201655 10 0.0 0.0 0.00 0.00 0.00 72 1013.2
20260506200553 10 0.0 0.0 0.00 0.00 0.00 69 1013.2
20260506195534 11 0.0 0.0 0.00 0.00 0.00 67 1013.2
20260506194617 11 0.0 3.2 0.00 0.00 0.00 66 1013.1
20260506193637 11 68 0.0 1.6 0.00 0.00 0.00 65 1013.0